Regional Weather Roundup
Issued by NWS

Home | Current Version | Previous Version | Text Only | Print | Product List | Glossary On
Versions: 1 2 3 4 5 6 7 8 9 10 11 12 13 14 15 16 17 18 19 20 21 22 23 24 25 26 27 28 29 30 31 32 33 34 35 36 37 38 39 40 41 42 43 44 45 46 47 48 49 50
000
ASUS43 KTOP 230208
RWRKS

WEATHER ROUNDUP FOR KANSAS
NATIONAL WEATHER SERVICE GOODLAND KS
800 PM CST MON DEC 22 2014

NOTE:  "FAIR" INDICATES FEW OR NO CLOUDS BELOW 12,000 FEET WITH NO
SIGNIFICANT WEATHER AND/OR OBSTRUCTIONS TO VISIBILITY.

KSZ001>006-013>018-027>032-041>047-230300-
NORTHWEST KANSAS

CITY           SKY/WX    TMP DP  RH WIND       PRES   REMARKS
GOODLAND       PTCLDY    34  25  69 NW15      29.69R WCI  24
HAYS           CLEAR     37  19  48 W13       29.62S WCI  29
HILL CITY      CLEAR     40  24  53 W16       29.62R WCI  31
RUSSELL        CLEAR     39  26  59 W12       29.59R WCI  32
$$

KSZ061>065-074>080-084>089-230300-
SOUTHWEST KANSAS

CITY           SKY/WX    TMP DP  RH WIND       PRES   REMARKS
DODGE CITY     CLEAR     37  22  54 NW13      29.69R WCI  29
ELKHART          N/A     39  24  55 W3          N/A
GARDEN CITY    CLEAR     36  21  54 NW10      29.71R WCI  28
GREAT BEND     FAIR      39  27  60 NW13      29.63R WCI  32
LIBERAL        MOCLDY    36  21  55 NW8       29.75R
PRATT          CLEAR     34  30  86 W8        29.66R
$$

KSZ066>073-081>083-090>101-230300-
SOUTHEAST KANSAS

CITY           SKY/WX    TMP DP  RH WIND       PRES   REMARKS
CHANUTE        PTCLDY    41  38  89 SW9       29.60R
COFFEYVILLE    CLEAR     43  39  86 SW6       29.62R
HUTCHINSON     CLEAR     34  28  79 CALM      29.60R
MEDICINE LODGE   N/A     40  29  64 W5        29.66R
NEWTON         CLEAR     41  28  60 W6        29.60S
PARSONS        FAIR      41  39  93 SW3       29.62R
WICHITA INTL   PTCLDY    38  32  79 W9        29.61R
WICHITA JABRA  CLEAR     39  32  76 W7        29.60R
WICHITA MCCONL PTCLDY    42  35  77 SW7       29.61R
WINFIELD       PTCLDY    40  35  83 SW6       29.64R
$$

KSZ007>012-019>026-033>040-048>060-102>105-230300-
NORTHEAST KANSAS

CITY           SKY/WX    TMP DP  RH WIND       PRES   REMARKS
CONCORDIA      MOCLDY    39  32  76 NW7       29.55R
EMPORIA        CLEAR     37  33  85 SW7       29.56R
LAWRENCE       CLOUDY    45  38  76 W7        29.54R
MANHATTAN      CLEAR     39  34  82 W5        29.55R
MARYSVILLE     CLEAR     37  34  87 W5        29.51S
OLATHE IND     CLOUDY    44  40  85 SW10      29.54R
OLATHE EXE     CLOUDY    44  40  85 W9        29.53R
SALINA         CLOUDY    44  32  62 NW8       29.58R
TOPEKA BILLARD PTCLDY    45  40  82 W5        29.54R
TOPEKA FORBES  PTCLDY    40  36  86 W8        29.53R
$$


USA.gov is the U.S. government's official web portal to all federal, state and local government web resources and services.